2018-094H (43718 NORAD) Tracking and Keplerian Element Data

This shows tracking and keplerian element data for the satellite.

Feedback or suggestion? Click here.




ElementValue
Catalog43718
Name2018-094H
Epoch Orbit289
Epoch Day344.40462141
Epoch Year2018
RAAN349.4626
Inclination97.5193
Eccentricity0.0026707
Argument of Perigee289.0684
Mean Anonmoly179.9523
Mean Motion15.28902151
Decay Rate2.351E-05
L11 43718U 18094H 18344.40462141 .00002351 00000-0 85736-4 0 9991
L22 43718 97.5193 349.4626 0026707 289.0684 179.9523 15.28902151 2891

Live tracking and technical data element details for 2018-094H (NORAD 43718). 2018-094H can be tracked NOW for your location showing map with azimuth and elevation plus other details from your city location.

Track the satellite on the map from your city or location and see movement details for azimuth, elevation, latitude, longitude, range, height, and movement on the map or in text.







IsCatalogInMostPopularTable: catalog: 43718, numindb: 21
Update: records affected: 1



GetName: 43718 2018-094H

Hit Count: updated at: Tue, 11 Dec 2018 01:52:51 GMT